Weather in Rimavska Sobota

Slovakia     48°22′55″N   20°01′24″E
temp.,
°C
wind,
m/s
gust,
m/s
humid.,
%
clouds,
%
prec.,
mm/h
press.,
hPa
HPBL,
m
16 may, sun
sun1623:00+10nne119492 0.1 100912
02:00+10ne1196100 0.8 100912
05:00+10nne1198100 1.3 100811
08:00+12e1295100 1.9 1008283
11:00+11sse2499100 3.8 1008307
14:00+12sw2494100 6.0 1009363
17:00+12ssw2391100 0.6 1008121
20:00+9nne009592 0.8 100810
17 may, mon
mon1723:00+7n219697 0.0 100913
02:00+7n119673 0.0 100913
05:00+6nne22965 0.0 100819
08:00+10ene1291100 0.0 1008254
11:00+12ese3586100 0.3 1006666
14:00+11ese2598100 6.7 1005352
17:00+11nnw0099100 6.4 100330
20:00+10wnw2298100 9.8 100384
18 may, tue
tue1823:00+8w3594100 0.3 1005106
02:00+6w359599 0.3 1007102
05:00+7wsw479384 0.0 1008197
08:00+11w477813 0.0 1009808
11:00+14wnw685428 0.0 10101622
14:00+15wnw695232 0.0 10101819
17:00+15w68602 0.0 10101217
20:00+10wsw38800 0.0 1011182
19 may, wed
wed1923:00+7wnw229191 0.0 101336
02:00+7nnw238894 0.0 101339
05:00+6nnw1187100 0.0 101318
08:00+11ne0168100 0.0 1014275
11:00+12ese126999 0.0 1013433
14:00+14ese2372100 1.3 1013975
17:00+11nnw1293100 4.9 101458
20:00+8n2496100 11.2 1015137
20 may, thu
thu2023:00+8wnw1196100 2.0 101515
02:00+8nw1196100 2.9 101523
05:00+6nnw2294100 0.0 101530
08:00+10nw1284100 0.0 1015230
11:00+14se1264100 0.4 10141076
14:00+15sw0165100 2.8 1014631
17:00+14n1268100 1.3 1014688
20:00+10wnw118397 1.8 101616